Sturgeon Bay, WI

6:24 PM CDT on October 21, 2019 (GMT -0500)
Door County Cherryland

Weather History for KSUE - August, 2019

Change the Weather History Date:

Saturday, August 17, 2019

  Actual Average Record
Temperature  
Mean Temperature 68 °F -  
Max Temperature 79 °F 78 °F 93 °F (1922)
Min Temperature 57 °F 57 °F 42 °F (1941)
Cooling Degree Days 3    
Growing Degree Days 18 (Base 50)    
Moisture  
Dew Point 62 °F    
Average Humidity 88    
Maximum Humidity 100    
Minimum Humidity 56    
Precipitation  
Precipitation 0.01 in - - ()
Sea Level Pressure  
Sea Level Pressure 29.85 in    
Wind  
Wind Speed 4 mph (SW)    
Max Wind Speed 13 mph    
Max Gust Speed -    
Visibility 7 miles    
Events Fog    
Averages and records for this station are not official NWS values.
T = Trace of Precipitation, MM = Missing Value Source: NWS Daily Summary

Daily Weather History Graph

Daily Weather History Graph

Search for Another Location

Airport or City:

Astronomy

Aug. 17, 2019 Rise Set
Actual Time 5:53 AM CDT 7:52 PM CDT
Civil Twilight 5:22 AM CDT 8:24 PM CDT
Nautical Twilight 4:43 AM CDT 9:03 PM CDT
Astronomical Twilight 4:00 AM CDT 9:45 PM CDT
Moon 9:16 PM CDT (8/17) 7:44 AM CDT (8/17)
Length of Visible Light 15h 02m
Length of Day
13h 58m
Waning Gibbous, 96% of the Moon is Illuminated
Aug 17
Waning Gibbous
Aug 23
Last Quarter
Aug 30
New
Sep 5
First Quarter
Sep 13
Full

Hourly Weather History & Observations

Time (CDT) Temp. Dew Point Humidity Pressure Visibility Wind Dir Wind Speed Gust Speed Precip Events Conditions
12:56 AM 64.0 °F 63.0 °F 96% 29.83 in 10.0 mi WSW 4.6 mph - N/A   Clear
1:56 AM 63.0 °F 62.1 °F 97% 29.84 in 10.0 mi WSW 4.6 mph - N/A   Clear
2:56 AM 63.0 °F 62.1 °F 97% 29.83 in 10.0 mi WNW 4.6 mph - N/A   Clear
3:56 AM 63.0 °F 62.1 °F 97% 29.83 in 10.0 mi West 3.5 mph - N/A   Clear
4:32 AM 60.8 °F 60.8 °F 100% 29.85 in 1.8 mi WSW 4.6 mph - N/A   Clear
4:50 AM 60.8 °F 60.8 °F 100% 29.85 in 0.8 mi WSW 3.5 mph - 0.01 in   Clear
4:56 AM 61.0 °F 61.0 °F 100% 29.84 in 0.8 mi WSW 4.6 mph - 0.01 in   Clear
5:10 AM 60.8 °F 60.8 °F 100% 29.83 in 1.0 mi West 3.5 mph - N/A   Mist
5:15 AM 60.8 °F 60.8 °F 100% 29.83 in 2.0 mi NW 3.5 mph - N/A   Partly Cloudy
5:21 AM 60.8 °F 59.0 °F 94% 29.83 in 1.0 mi Calm Calm - N/A   Mist
5:24 AM 59.0 °F 59.0 °F 100% 29.83 in 0.5 mi Calm Calm - N/A Fog Fog
5:44 AM 60.8 °F 60.8 °F 100% 29.82 in 1.0 mi Calm Calm - N/A   Mist
5:51 AM 57.2 °F 57.2 °F 100% 29.81 in 0.5 mi Calm Calm - N/A Fog Fog
5:56 AM 60.1 °F 59.0 °F 96% 29.80 in 0.2 mi Calm Calm - N/A Fog Fog
6:38 AM 60.8 °F 60.8 °F 100% 29.85 in 0.8 mi SW 5.8 mph - N/A   Mist
6:41 AM 60.8 °F 60.8 °F 100% 29.86 in 3.0 mi SSW 5.8 mph - N/A   Scattered Clouds
6:56 AM 62.1 °F 62.1 °F 100% 29.88 in 9.0 mi SW 6.9 mph - N/A   Clear
7:56 AM 64.9 °F 63.0 °F 93% 29.90 in 10.0 mi WSW 4.6 mph - N/A   Clear
8:56 AM 68.0 °F 64.9 °F 90% 29.90 in 10.0 mi West 6.9 mph - N/A   Partly Cloudy
9:56 AM 71.1 °F 66.0 °F 84% 29.88 in 10.0 mi Variable 3.5 mph - N/A   Clear
10:56 AM 73.0 °F 64.9 °F 76% 29.90 in 10.0 mi Calm Calm - N/A   Clear
11:56 AM 75.0 °F 66.0 °F 73% 29.89 in 10.0 mi WNW 3.5 mph - N/A   Clear
12:56 PM 75.9 °F 62.1 °F 62% 29.89 in 10.0 mi SW 6.9 mph - N/A   Partly Cloudy
1:56 PM 78.1 °F 63.0 °F 60% 29.88 in 10.0 mi Variable 3.5 mph - N/A   Clear
2:56 PM 79.0 °F 62.1 °F 56% 29.87 in 10.0 mi WNW 4.6 mph - N/A   Mostly Cloudy
3:56 PM 78.1 °F 61.0 °F 56% 29.87 in 10.0 mi SSW 4.6 mph - N/A   Partly Cloudy
4:56 PM 77.0 °F 66.0 °F 69% 29.86 in 10.0 mi South 9.2 mph - N/A   Mostly Cloudy
5:56 PM 75.9 °F 66.0 °F 71% 29.85 in 10.0 mi SSE 9.2 mph - N/A   Clear
6:56 PM 73.0 °F 64.9 °F 76% 29.85 in 10.0 mi South 12.7 mph - N/A   Clear
7:56 PM 69.1 °F 63.0 °F 81% 29.86 in 10.0 mi South 9.2 mph - N/A   Clear
8:56 PM 66.9 °F 63.0 °F 87% 29.86 in 10.0 mi South 6.9 mph - N/A   Clear
9:56 PM 66.0 °F 63.0 °F 90% 29.86 in 10.0 mi South 4.6 mph - N/A   Clear
10:56 PM 64.9 °F 63.0 °F 93% 29.86 in 10.0 mi South 5.8 mph - N/A   Clear
11:56 PM 64.9 °F 63.0 °F 93% 29.86 in 10.0 mi South 5.8 mph - N/A   Clear